EHI
0 0 0 0 0 0 0 0 0 0 0 0 0 0 0 0 0 0 1 3 1 1 3 4 4 5 5 3 3 6 6 5 3 2 2 1 1 2 2 1 0 0 0 0
0 0 0 0 0 0 0 0 0 0 0 0 0 0 0 0 0 0 1 2 1 1 3 4 4 4 3 2 2 5 6 5 3 2 1 0 1 1 1 0 0 0 0 0
0 0 0 0 0 0 0 0 0 0 0 0 0 0 0 0 0 0 0 0 0 0 2 4 3 2 1 1 1 3 4 3 3 2 1 1 0 0 0 0 0 0 0 0
0 0 0 0 0 0 0 0 0 0 0 0 0 0 0 0 0 0 0 0 0 0 2 2 1 1 0 0 1 2 2 2 2 2 2 1 0 0 0 0 0 0 0 0
0 0 0 0 0 0 0 0 0 0 0 0 0 0 0 0 0 0 0 0 0 1 2 1 0 0 0 0 1 1 1 1 1 2 2 1 0 0 0 0 0 0 0 0
0 0 0 0 0 0 0 0 0 0 0 0 0 0 0 0 0 0 0 0 0 0 1 0 0 0 0 1 1 1 0 0 0 1 1 1 0 0 0 0 0 0 0 0
0 0 0 0 0 0 0 0 0 0 0 0 0 0 0 0 0 0 0 0 0 0 0 0 0 0 0 1 1 1 0 0 0 0 0 0 0 0 0 0 0 0 0 0
0 0 0 0 0 0 0 0 0 0 0 0 0 0 0 0 0 0 0 0 0 0 0 0 0 0 0 0 1 0 0 0 0 0 0 0 0 0 0 0 0 0 0 0
0 0 0 0 0 0 0 0 0 0 0 0 0 0 0 0 0 0 0 0 0 0 0 0 0 0 0 0 1 0 0 1 1 0 0 0 0 0 0 0 0 0 0 0
0 0 0 0 0 0 0 0 0 0 0 0 0 0 0 0 0 0 0 0 0 0 0 0 0 0 0 0 0 0 0 0 1 1 1 0 0 0 0 0 0 0 0 0
0 0 0 0 0 0 0 0 0 0 0 0 0 0 0 0 0 0 0 0 0 0 0 0 0 0 0 0 0 0 0 0 0 0 1 1 1 1 1 1 1 1 1 0
0 0 0 0 0 0 0 0 0 0 0 0 0 0 0 0 0 0 0 0 0 0 0 0 0 0 0 0 0 0 0 0 0 0 0 0 1 1 2 2 2 2 1 1
0 0 0 0 0 0 0 0 0 0 0 0 0 0 0 0 0 0 0 0 0 0 0 0 0 0 0 0 0 0 0 0 0 0 0 0 0 1 1 1 1 1 1 0
0 0 0 0 0 0 0 0 0 0 0 0 0 0 0 0 0 0 0 0 0 0 0 0 0 0 0 0 0 0 0 0 0 0 0 0 0 0 0 0 0 0 0 0
0 0 0 0 0 0 0 0 0 0 0 0 0 0 0 0 0 0 0 0 0 0 0 0 0 0 0 0 0 0 0 0 0 0 0 0 0 0 0 0 0 0 0 0
0 0 0 0 0 0 0 0 0 0 0 0 0 0 0 0 0 0 0 0 0 0 0 0 0 0 0 0 0 0 0 0 0 0 0 0 0 0 0 0 0 0 0 0
0 0 0 0 0 0 0 0 0 0 0 0 0 0 0 0 0 0 0 0 0 0 0 0 0 0 0 0 0 0 0 0 0 0 0 0 0 0 0 0 0 0 0 0
0 0 0 0 0 0 0 0 0 0 0 0 0 0 0 0 0 0 0 0 0 0 0 0 0 0 0 0 0 0 0 0 0 0 0 0 0 0 0 0 0 0 0 0
0 0 0 0 0 0 0 0 0 0 0 0 0 0 0 0 0 0 0 0 0 0 0 0 0 0 0 0 0 0 0 0 0 0 0 0 0 0 0 0 0 0 0 0
0 0 0 0 0 0 0 0 0 0 0 0 0 0 0 0 0 0 0 0 0 0 0 0 0 0 0 0 0 0 0 0 0 0 0 0 0 0 0 0 0 0 0 0
0 0 0 0 0 0 0 0 0 0 0 0 0 0 0 0 0 0 0 0 0 0 0 0 0 0 0 0 0 0 0 0 0 0 0 0 0 0 0 0 0 0 0 0
0 0 0 0 0 0 0 0 0 0 0 0 0 0 0 0 0 0 0 0 0 0 0 0 0 0 0 0 0 0 0 0 0 0 0 0 0 0 0 0 0 0 0 0
0 0 0 0 0 0 0 0 0 0 0 0 0 0 0 0 0 0 0 0 0 0 0 0 0 0 0 0 0 0 0 0 0 0 0 0 0 0 0 0 0 0 0 0
0 0 0 0 0 0 0 0 0 0 0 0 0 0 0 0 0 0 0 0 0 0 0 0 0 0 0 0 0 0 0 0 0 0 0 0 0 0 0 0 0 0 0 0
0 0 0 0 0 0 0 0 0 0 0 0 0 0 0 0 0 0 0 0 0 0 0 0 0 0 0 0 0 0 0 0 0 0 0 0 0 0 0 0 0 0 0 0
0 0 0 0 0 0 0 0 0 0 0 0 0 0 0 0 0 0 0 0 0 0 0 0 0 0 0 0 0 0 0 0 0 0 0 0 0 0 0 0 0 0 0 0
Wind_Speed
2 2 3 5 5 5 5 6 8 7 5 8 9 9 6 4 5 4 4 3 3 2 2 2 2 3 5 5 6 7 6 6 5 4 4 4 3 3 3 3 4 4 3 4
1 3 5 5 5 5 6 7 7 5 5 5 7 8 5 4 5 4 4 4 3 2 2 2 2 3 4 4 6 6 6 6 5 4 3 3 3 3 3 3 3 3 3 3
1 2 4 4 4 5 6 7 5 4 4 5 4 6 6 4 3 3 3 3 3 3 3 3 3 3 4 3 4 4 5 5 5 6 4 4 3 3 2 3 2 2 3 3
2 3 3 3 3 4 6 5 5 4 3 3 4 4 6 6 5 5 4 3 3 3 2 3 3 3 4 4 3 4 4 5 5 6 6 7 5 4 3 3 3 3 3 3
1 2 2 3 4 3 4 4 5 5 4 3 4 4 4 6 6 5 4 3 3 3 3 3 3 3 3 4 3 3 4 4 4 5 6 6 5 4 3 3 4 4 3 3
1 1 2 3 4 3 4 2 3 3 2 5 7 5 4 4 6 5 4 3 2 2 2 2 3 3 2 3 3 3 4 3 4 4 4 5 6 6 5 4 4 4 3 3
3 2 1 2 2 1 1 1 1 1 3 4 5 4 4 4 3 3 3 4 3 2 2 2 3 2 2 3 3 3 4 3 3 4 3 3 4 5 6 5 5 4 3 3
3 3 3 2 1 1 2 0 1 1 2 2 3 4 2 0 3 3 3 3 3 2 2 2 2 2 2 2 3 3 3 3 2 3 3 3 3 3 3 4 4 4 4 3
3 3 2 3 3 2 1 0 2 2 2 2 3 3 1 1 2 3 3 3 2 1 1 1 1 2 2 2 2 3 3 3 2 2 3 3 3 3 3 3 3 3 3 3
4 4 3 2 1 1 2 1 1 1 1 2 3 3 1 1 2 2 1 1 1 1 2 1 1 2 2 2 2 2 2 2 2 2 2 2 2 2 3 3 3 3 3 3
3 2 3 1 0 1 1 1 1 2 2 1 2 1 2 2 1 2 2 1 2 2 2 2 1 2 1 2 2 2 2 3 2 1 2 2 2 2 2 3 3 3 3 4
3 2 3 3 1 1 1 1 0 1 3 2 1 2 3 3 2 3 3 2 2 3 3 2 2 2 2 2 2 2 2 2 2 1 2 2 3 3 3 2 2 3 3 3
3 1 2 2 0 1 1 2 2 3 2 2 2 3 2 5 5 4 4 3 3 3 3 3 3 3 3 2 2 2 2 2 2 2 3 3 2 2 2 2 2 3 3 3
2 1 2 3 2 1 3 4 3 2 2 3 3 3 3 5 5 5 5 4 3 4 4 4 4 3 3 3 2 3 2 2 2 2 3 3 2 2 2 2 2 2 3 3
1 2 3 7 7 5 5 5 4 5 5 4 4 3 4 4 4 4 5 4 5 5 5 5 5 4 4 3 3 3 2 2 2 2 2 2 2 2 2 2 2 3 2 2
1 2 3 5 5 5 5 6 6 6 6 6 5 5 4 3 3 4 5 5 5 5 5 5 5 5 4 4 3 3 3 2 2 3 2 2 3 2 2 2 3 3 2 2
1 1 2 3 3 3 4 4 4 3 2 2 4 3 3 4 5 4 5 4 4 4 4 4 4 4 4 4 3 3 2 2 2 2 3 3 2 2 2 2 3 3 2 2
1 1 2 3 3 4 3 1 1 2 2 2 2 3 3 3 3 4 4 4 4 4 4 4 4 4 4 3 3 2 2 2 1 2 2 2 2 2 2 2 2 2 2 2
2 2 2 2 3 5 2 0 1 1 2 2 2 3 4 4 2 3 5 5 4 4 4 3 3 3 3 3 3 2 2 2 2 2 2 2 2 2 2 2 1 2 2 2
1 2 2 3 3 5 2 0 1 1 2 2 2 2 3 4 2 2 4 5 5 4 3 3 3 3 3 3 2 2 2 2 1 1 1 2 1 2 1 1 1 1 2 2
1 2 4 4 4 5 2 0 0 2 5 1 1 2 2 2 2 2 4 4 4 4 4 3 3 2 2 2 2 2 1 1 2 2 2 2 1 1 1 1 1 1 2 2
4 3 3 3 4 7 1 2 2 4 1 1 2 2 2 2 2 2 3 3 3 3 4 3 3 3 2 2 2 1 1 2 2 2 2 2 1 1 1 1 1 1 2 2
5 5 3 5 6 2 2 2 2 1 2 2 2 2 2 2 3 2 3 3 2 2 3 3 2 3 3 2 1 1 1 1 1 1 1 1 1 1 1 1 1 1 2 2
3 3 3 4 5 3 3 2 1 1 1 2 2 2 1 2 2 2 3 2 2 2 2 2 2 2 3 2 2 1 1 1 0 1 1 1 1 1 1 1 1 1 1 1
3 4 3 5 5 4 3 2 1 1 1 2 2 2 2 2 2 2 2 2 2 2 2 2 2 2 3 2 2 1 1 0 0 0 0 1 1 1 1 1 1 1 1 2
5 5 5 6 4 3 3 0 0 1 2 2 1 1 1 1 2 2 2 2 1 1 2 2 2 2 2 2 2 2 1 0 1 1 0 0 1 1 1 1 1 2 1 1
Wind_Direction
197 221 232 237 227 245 247 241 245 249 226 232 229 233 223 196 190 196 200 212 208 190 141 131 126 120 134 138 141 144 144 143 135 134 133 136 135 125 114 115 118 122 120 117
204 243 254 256 242 244 251 248 245 256 246 244 242 243 229 212 194 186 191 201 212 188 146 133 122 117 129 151 151 147 151 156 152 151 144 136 133 124 119 115 112 123 123 125
263 280 262 248 250 251 258 246 242 244 279 252 247 245 220 209 202 192 188 185 185 189 179 171 153 135 136 147 154 158 164 157 152 142 128 116 106 107 121 129 135 135 132 130
265 290 262 234 247 262 258 262 255 241 238 251 223 238 221 197 199 207 203 193 190 191 171 164 153 152 156 160 153 149 155 152 150 145 150 152 153 159 165 157 151 136 131 133
313 321 310 264 262 267 271 283 263 240 240 256 229 227 232 193 208 207 188 186 197 182 167 165 156 158 160 145 139 151 147 152 153 155 161 160 155 149 138 139 145 147 143 142
339 339 317 290 277 267 282 273 288 260 235 238 222 209 235 209 208 203 192 172 172 156 143 131 126 120 124 122 125 138 146 155 150 154 162 160 154 150 146 157 161 157 154 155
329 354 341 301 305 314 329 69 39 230 204 227 208 211 228 211 177 169 169 160 150 135 125 111 111 106 102 121 130 136 146 152 155 157 160 158 157 155 162 167 169 161 160 166
343 328 5 2 349 310 264 246 202 239 223 255 206 212 224 171 117 118 120 124 132 116 113 111 123 122 118 125 133 140 146 149 152 156 163 156 150 153 165 170 167 171 167 169
340 308 355 347 337 315 293 234 273 294 282 259 215 196 204 79 81 98 96 93 116 128 120 111 111 121 121 130 129 144 146 139 150 164 156 157 158 157 159 156 154 157 155 157
332 297 299 316 324 315 300 318 333 277 267 259 229 205 203 103 24 64 115 119 115 121 111 94 84 82 109 125 123 124 131 125 134 156 156 151 142 145 154 149 153 151 147 144
340 303 304 340 298 280 291 255 282 271 268 252 249 244 16 95 57 16 22 56 39 71 93 96 73 64 90 117 118 125 126 107 103 125 135 129 129 125 130 143 144 144 144 148
334 319 291 270 252 305 289 268 273 245 277 267 257 279 4 51 65 41 25 35 47 63 56 57 69 65 58 81 93 92 110 116 124 123 101 101 108 114 116 125 140 146 150 150
345 347 308 306 308 2 317 290 274 268 271 260 226 251 24 34 37 25 19 28 49 53 46 48 58 58 54 57 63 71 77 89 101 110 106 100 98 108 117 116 117 129 136 141
340 266 236 253 277 290 281 280 283 258 239 259 233 251 318 357 3 360 2 16 43 51 42 43 47 41 48 49 48 55 56 73 82 98 108 110 105 99 107 114 117 115 125 134
27 269 272 279 282 271 267 268 259 243 249 246 265 282 303 335 349 357 8 17 38 39 38 37 37 28 28 40 45 55 55 66 90 99 96 96 90 86 94 105 110 106 108 123
15 279 295 278 266 257 261 270 259 254 257 258 270 287 306 328 17 15 7 18 26 29 33 33 30 23 19 21 25 44 46 42 83 96 97 95 95 94 99 105 110 109 109 107
295 287 300 280 317 326 270 246 239 228 234 246 259 274 336 358 9 4 358 10 16 20 26 27 23 14 12 9 14 24 27 41 80 99 103 103 104 103 103 109 114 120 123 120
198 269 263 289 327 258 240 130 170 212 262 293 291 324 342 342 348 6 12 11 10 14 16 17 20 10 3 7 10 19 29 37 76 96 99 104 109 108 100 102 115 125 122 128
189 196 252 266 273 271 267 334 353 241 288 311 289 314 330 337 339 13 21 18 15 15 14 12 11 2 1 11 17 26 35 40 60 85 97 104 113 117 111 110 118 126 121 113
188 184 232 247 257 257 267 9 6 58 265 325 345 320 324 334 308 304 360 10 7 4 3 5 5 9 12 13 25 31 27 35 39 58 90 96 105 122 130 135 125 120 121 121
195 211 223 240 246 261 273 261 120 186 248 301 335 308 313 302 267 298 340 354 356 353 352 1 10 12 5 5 21 22 25 13 11 38 70 78 84 109 118 108 106 126 127 120
191 200 207 219 234 253 154 126 192 231 290 316 308 293 291 285 298 317 329 335 344 348 352 358 7 360 355 0 20 28 12 2 23 47 63 70 67 76 96 100 89 112 130 125
202 200 198 206 222 239 170 203 245 288 280 296 297 295 276 271 276 298 318 321 331 344 345 350 358 346 344 354 13 26 333 358 27 55 66 69 61 60 84 118 125 130 134 134
215 195 225 253 255 251 242 230 253 258 260 299 304 288 277 265 267 286 296 306 325 338 342 347 346 340 337 349 357 329 313 339 48 87 91 94 91 82 83 93 115 132 154 147
223 185 220 247 266 284 262 241 266 316 315 315 311 295 275 261 269 271 283 297 304 320 329 331 323 321 317 333 345 337 329 51 115 107 91 89 90 92 88 71 75 141 184 173
205 192 196 226 221 213 247 250 347 291 286 290 289 300 294 257 249 260 280 293 309 321 327 327 320 319 320 329 331 329 332 166 156 160 182 161 130 117 117 111 63 51 100 94